This demonstration page uses our WeatherBlox Daily Observations layout. Learn more.

Left ArrowRight Arrow

Hourly Observations for July 16, 2020

Temp ( °F °C ) Dew Point ( °F °C ) Humidity (%) Winds ( mph kmh ) Pressure ( in mb ) Visibility ( mi km ) Precip ( " mm )
12:53 am 00:53 Clear 69 20.6 66 18.9 90 90 SE 5 7 30.02 1017 10 16 0.00 0.00
1:53 am 01:53 Clear with Mist and Fog 67 19.4 65 18.3 93 93 S 3 6 30.04 1017 5 8 0.00 0.00
2:53 am 02:53 Clear 68 20 65 18.3 90 90 SSE 8 13 30.04 1017 7 11 0.00 0.00
3:53 am 03:53 Clear with Mist and Fog 67 19.4 64 17.8 91 91 SSE 5 7 30.03 1017 6 10 0.00 0.00
4:53 am 04:53 Clear with Mist and Fog 66 18.9 64 17.8 93 93 SSE 7 11 30.03 1017 6 10 0.00 0.00
5:04 am 05:04 Partly Cloudy with Mist and Fog 66 18.9 64 17.8 93 93 SSE 6 9 30.02 1017 5 8 0.00 0.00
5:15 am 05:15 Mostly Cloudy with Mist and Fog 65 18.3 63 17.2 93 93 SE 5 7 30.03 1017 2 3 0.00 0.00
5:22 am 05:22 Mostly Cloudy with Mist and Fog 64 17.8 63 17.2 96 96 SE 6 9 30.03 1017 1 2 0.00 0.00
5:36 am 05:36 Cloudy with Mist and Fog 65 18.3 64 17.8 97 97 SE 6 9 30.02 1017 2 3 0.00 0.00
5:53 am 05:53 Mostly Cloudy with Mist and Fog 65 18.3 64 17.8 97 97 SSE 6 9 30.03 1017 4 6 0.00 0.00
6:05 am 06:05 Partly Cloudy with Mist and Fog 65 18.3 64 17.8 97 97 SSE 6 9 30.03 1017 4 6 0.00 0.00
6:23 am 06:23 Mostly Cloudy with Mist and Fog 65 18.3 64 17.8 97 97 SSE 3 6 30.03 1017 3 4 0.00 0.00
6:29 am 06:29 Mostly Cloudy with Mist and Fog 65 18.3 64 17.8 97 97 SSE 5 7 30.03 1017 1 1 0.00 0.00
6:53 am 06:53 Cloudy with Fog 65 18.3 64 17.8 97 97 S 6 9 30.04 1017 0 0 0.00 0.00
7:19 am 07:19 Cloudy with Mist and Fog 64 18 64 18 100 100 S 6 9 30.04 1017 3 4 0.00 0.00
7:26 am 07:26 Cloudy with Mist and Fog 66 18.9 64 17.8 93 93 S 5 7 30.03 1017 4 6 0.00 0.00
7:42 am 07:42 Cloudy with Mist and Fog 66 18.9 65 18.3 96 96 S 5 7 30.02 1017 3 4 0.00 0.00
7:53 am 07:53 Cloudy with Mist and Fog 66 18.9 65 18.3 96 96 S 6 9 30.04 1017 1 2 0.00 0.00
8:04 am 08:04 Cloudy with Mist and Fog 66 18.9 65 18.3 96 96 S 6 9 30.03 1017 1 1 0.00 0.00
8:23 am 08:23 Cloudy with Mist and Fog 67 19.4 66 18.9 97 97 S 7 11 30.03 1017 1 2 0.00 0.00
8:32 am 08:32 Cloudy with Fog 68 20 67 19.4 96 96 S 8 13 30.03 1017 1 1 0.00 0.00
8:53 am 08:53 Cloudy with Mist and Fog 68 20 67 19.4 96 96 S 6 9 30.05 1018 1 1 0.00 0.00
9:02 am 09:02 Cloudy with Mist and Fog 68 20 67 19.4 96 96 S 8 13 30.03 1017 2 2 0.00 0.00
9:11 am 09:11 Cloudy with Mist and Fog 69 20.6 67 19.4 93 93 S 8 13 30.02 1017 3 5 0.00 0.00
9:51 am 09:51 Cloudy 72 22 68 20 88 88 S 8 13 30.01 1016 10 16 0.00 0.00
9:53 am 09:53 Cloudy 73 22.8 68 20 84 84 SSW 7 11 30.04 1017 10 16 0.00 0.00
10:16 am 10:16 Cloudy 74 23.3 68 20 82 82 SSW 8 13 30.00 1016 10 16 0.00 0.00
10:34 am 10:34 Mostly Cloudy 76 24.4 68 20 77 77 S 8 13 29.99 1015 10 16 0.00 0.00
10:53 am 10:53 Mostly Cloudy 78 25.6 68 20 71 71 S 10 17 30.02 1017 10 16 0.00 0.00
11:53 am 11:53 Mostly Cloudy 81 27.2 68 20 65 65 SW 5 7 30.01 1016 10 16 0.00 0.00
12:33 pm 12:33 Partly Cloudy 82 27.8 68 20 63 63 S 7 11 29.94 1014 10 16 0.00 0.00
12:53 pm 12:53 Partly Cloudy 82 27.8 69 20.6 65 65 SSW 7 11 30.01 1016 10 16 0.00 0.00
1:53 pm 13:53 Sunny 86 30 69 20.6 57 57 SSE 14 22 29.98 1015 10 16 0.00 0.00
2:53 pm 14:53 Mostly Sunny 87 30.6 69 20.6 55 55 SSE 10 17 29.96 1015 10 16 0.00 0.00
3:53 pm 15:53 Partly Cloudy 87 30.6 70 21.1 57 57 SE 12 19 29.96 1015 10 16 0.00 0.00
4:53 pm 16:53 Mostly Cloudy 88 31.1 70 21.1 55 55 SSE 15 24 29.95 1014 10 16 0.00 0.00
5:53 pm 17:53 Mostly Sunny 88 31.1 71 21.7 57 57 S 14 22 29.94 1014 10 16 0.00 0.00
6:53 pm 18:53 Mostly Sunny 85 29.4 71 21.7 63 63 SSE 10 17 29.95 1014 10 16 0.00 0.00
7:53 pm 19:53 Mostly Cloudy 84 28.9 71 21.7 65 65 SSE 12 19 29.96 1015 10 16 0.00 0.00
8:53 pm 20:53 Mostly Sunny 81 27.2 71 21.7 72 72 SSE 9 15 29.97 1015 10 16 0.00 0.00
9:53 pm 21:53 Clear 79 26.1 71 21.7 77 77 SE 8 13 29.99 1016 10 16 0.00 0.00
10:53 pm 22:53 Clear 78 25.6 71 21.7 79 79 SE 10 17 29.99 1016 10 16 0.00 0.00
11:53 pm 23:53 Clear 77 25 70 21.1 79 79 SSE 10 17 29.98 1015 10 16 0.00 0.00

Powered by AerisWeather